Home > Time Zones > World Clock > Weather > Russia > Ufa > Past weeks

Flag for Russia Weather past 2 weeks in Ufa, Russia

Now
72 °F

Sunny.


Feels Like: 76 °F
Forecast: 42 / 75 °F
Wind: 20 mph from North

Location: Ufa

Current Time: May 22, 2015 at 7:15:10 PM

Latest Report: May 22, 2015 at 6:30 PM


Visibility: 10 mi

Pressure: 29.92 "Hg

Humidity: 27%

Dew point: 36 °F

Location of UfaLocation

Historic Weather in Ufa — Graph

°F

Ufa temperature yesterday

Maximum temperature yesterday: 66 °F (at 4:30 PM)
Minimum temperature yesterday: 46 °F (at 5:30 AM)
Average temperature yesterday: 56 °F

Past Weeks' High & Low Weather Summary

 TemperatureHumidityPressure
High72 °F (May 22, 3:30 PM)100% (May 7, 6:00 PM)30.24 "Hg (May 7, 6:00 PM)
Low32 °F (May 11, 5:00 AM)27% (May 22, 5:00 PM)29.36 "Hg (May 17, 11:30 AM)
Average51 °F77%29.79 "Hg
* Reported May 7 6:00 PM — May 22 6:00 PM, Ufa, Weather by CustomWeather, © 2015

Note: Actual official high and low records may vary slightly from our data, if they occured in-between our weather recording intervals... More about our weather records

Advertising

Ufa weather history for previous 24 hours

 ConditionsComfort  
Time TempWeatherWind HumidityBarometerVisibility
6:00 PM
Fri, May 22
72 °FPassing clouds.17 mph27%29.92 "HgN/A
5:30 PM72 °FPassing clouds.20 mph27%29.92 "HgN/A
5:00 PM72 °FSunny.22 mph27%29.92 "Hg10 mi
4:30 PM72 °FPassing clouds.20 mph29%29.92 "HgN/A
4:00 PM72 °FSunny.20 mph29%29.92 "Hg10 mi
3:30 PM72 °FPassing clouds.22 mph29%29.92 "HgN/A
3:00 PM70 °FPassing clouds.22 mph31%29.92 "HgN/A
2:30 PM70 °FPassing clouds.17 mph31%29.92 "HgN/A
2:00 PM70 °FPassing clouds.17 mph31%29.92 "HgN/A
1:30 PM70 °FSunny.22 mph33%29.92 "Hg10 mi
1:00 PM70 °FPassing clouds.22 mph31%29.92 "HgN/A
12:30 PM68 °FSunny.22 mph38%29.89 "Hg10 mi
12:00 PM68 °FPassing clouds.24 mph35%29.89 "HgN/A
11:30 AM68 °FSunny.20 mph43%29.92 "Hg10 mi
11:00 AM66 °FPassing clouds.20 mph49%29.92 "HgN/A
10:30 AM66 °FPassing clouds.15 mph52%29.92 "HgN/A
10:00 AM63 °FPassing clouds.13 mph64%29.92 "HgN/A
9:30 AM61 °FPassing clouds.13 mph68%29.89 "HgN/A
9:00 AM61 °FPassing clouds.10 mph68%29.89 "HgN/A
8:30 AM59 °FSunny.6 mph68%29.89 "Hg10 mi
8:00 AM57 °FSunny.3 mph72%29.92 "Hg10 mi
7:30 AM55 °FSunny.1 mph77%29.92 "Hg10 mi
7:00 AM52 °FSunny.No wind82%29.92 "Hg10 mi
6:30 AM50 °FClear.No wind88%29.92 "Hg10 mi
6:00 AM46 °FClear.No wind93%29.92 "Hg10 mi
5:30 AM46 °FClear.No wind87%29.92 "Hg10 mi
5:00 AM45 °FClear.No wind93%29.92 "Hg10 mi
4:30 AM46 °FClear.1 mph93%29.92 "Hg10 mi
4:00 AM48 °FClear.No wind87%29.92 "Hg10 mi
3:30 AM50 °FClear.No wind88%29.92 "Hg10 mi
3:00 AM54 °FClear.1 mph77%29.92 "Hg10 mi
2:30 AM52 °FClear.No wind77%29.95 "Hg10 mi
2:00 AM50 °FClear.1 mph82%29.95 "Hg10 mi
1:30 AM50 °FClear.1 mph82%29.95 "Hg10 mi
1:00 AM50 °FClear.1 mph82%29.95 "Hg10 mi
12:30 AM50 °FClear.1 mph82%29.95 "Hg10 mi
12:00 AM50 °FClear.1 mph82%29.95 "Hg10 mi
11:30 PM
Thu, May 21
50 °FClear.1 mph82%29.95 "Hg10 mi
11:00 PM52 °FSunny.1 mph77%29.95 "Hg10 mi
10:30 PM52 °FScattered clouds.1 mph77%29.95 "HgN/A
10:00 PM52 °FScattered clouds.1 mph82%29.95 "HgN/A
9:30 PM54 °FScattered clouds.1 mph77%29.92 "HgN/A
9:00 PM55 °FScattered clouds.3 mph72%29.92 "HgN/A
8:30 PM57 °FPartly sunny.8 mph67%29.92 "HgN/A
8:00 PM59 °FPartly sunny.13 mph63%29.92 "HgN/A
7:30 PM61 °FPartly sunny.13 mph55%29.92 "HgN/A
7:00 PM59 °FPartly sunny.8 mph59%29.92 "HgN/A
Weather by CustomWeather, © 2015

See weather overviewHow to use our weather pages